Main page
METAR-TAF:

METAR-TAF

Airports :

Castellón–Costa Azahar Airport

Castellón de la Plana, Spain

latitude: 40-12-35N, longitude: 0-04-11E, elevation: 360 m

Current weather observation

The report was made 35 minutes ago, at 18:30 UTC
Wind 6 kt from the Southwest
Temperature 10°C
Humidity 76%
Pressure 1014 hPa
Visibility: 9000 m

METAR: LECH 211830Z AUTO 23006KT 9000 NCD 10/06 Q1014

Time: 20:05 (19:05 UTC)


TAF: missing

Weather observations and forecasts of more than 4000 airports (METAR and TAF reports).

The available stations are represented by yellow and red dots on the map.

Hover mouse over dot to see the name of the station.

Then click to see weather observations and forecasts.

To change the map : click on the green buttons with a black cross to zoom in, on the green button with a dash to zoom out, or on the green arrows for adjacent maps.


METAR-TAF: